Flight Track Log - Related Links

Times and Time Zones

All times are in EDT time to prevent confusion due to time zone crossing. See the CTL18 flight status page for this flight to view local times or setup timezone preferences in your user account.

Time Position Orientation Groundspeed Altitude Reporting Facility
EDT Latitude Longitude Course Direction KTS MPH feet Rate Location/Type
Thu 08:59:33 PM 42.2608 -83.5683 308° West 117 135 2,000  Level Cleveland Center
Thu 09:00:27 PM 42.2703 -83.6053 289° West 115 132 2,800 991 Climbing Cleveland Center
Thu 09:01:28 PM 42.2908 -83.6231 327° Northwest 105 121 3,900 836 Climbing Cleveland Center
Thu 09:02:29 PM 42.2772 -83.5806 113° Southeast 138 159 4,500 492 Climbing Cleveland Center
Thu 09:03:30 PM 42.2619 -83.5292 112° Southeast 146 168 4,900 246 Climbing Cleveland Center
Thu 09:04:31 PM 42.2381 -83.4803 123° Southeast 171 197 5,000 47 Climbing Cleveland Center
Thu 09:05:38 PM 42.2042 -83.4172 126° Southeast 183 211 5,000  Level Cleveland Center
Thu 09:06:32 PM 42.1892 -83.3578 109° East 178 205 5,000 50 Level Cleveland Center
Thu 09:07:39 PM 42.1803 -83.2872 100° East 176 203 5,100  Climbing Cleveland Center
Thu 09:08:40 PM 42.1736 -83.2169 97° East 183 211 5,000 -52 Descending Cleveland Center
Thu 09:09:35 PM 42.1667 -83.1578 99° East 182 209 5,000  Level Cleveland Center
Thu 09:10:30 PM 42.1556 -83.0956 104° East 183 211 5,000  Level Cleveland Center
Thu 09:12:11 PM 42.1181 -82.9989 118° Southeast 199 229 5,000  Level Cleveland Center
Thu 09:13:11 PM 42.0900 -82.9364 121° Southeast 199 229 5,000  Level Cleveland Center
Thu 09:13:55 PM 42.0700 -82.8936 122° Southeast 191 220 5,000  Level Cleveland Center
Thu 09:14:56 PM 42.0442 -82.8339 120° Southeast 183 211 5,000  Level Cleveland Center
Thu 09:15:57 PM 42.0119 -82.7714 125° Southeast 188 216 5,000 45 Level Cleveland Center
Thu 09:17:09 PM 41.9800 -82.7006 121° Southeast 185 213 5,100  Climbing Cleveland Center
Thu 09:17:52 PM 41.9619 -82.6608 121° Southeast 185 213 5,000 -55 Descending Cleveland Center
Thu 09:18:59 PM 41.9339 -82.5956 120° Southeast 182 209 5,000  Level Cleveland Center
Thu 09:19:59 PM 41.9058 -82.5333 121° Southeast 184 212 5,000  Level Cleveland Center
Thu 09:21:00 PM 41.8797 -82.4739 121° Southeast 184 212 5,000  Level Cleveland Center
Thu 09:21:55 PM 41.8556 -82.4203 121° Southeast 182 209 5,000  Level Cleveland Center
Thu 09:22:55 PM 41.8294 -82.3611 121° Southeast 180 207 5,000  Level Cleveland Center
Thu 09:24:08 PM 41.7992 -82.2933 121° Southeast 183 211 5,000  Level Cleveland Center
Thu 09:25:03 PM 41.7750 -82.2425 123° Southeast 179 206 5,000  Level Cleveland Center
Thu 09:26:03 PM 41.7464 -82.1889 126° Southeast 179 206 5,000  Level Cleveland Center
Thu 09:27:10 PM 41.7203 -82.1217 117° Southeast 177 204 5,000 -198 Level Cleveland Center
Thu 09:28:04 PM 41.6939 -82.0681 123° Southeast 184 212 4,600 -440 Descending Cleveland Center
Thu 09:28:59 PM 41.6675 -82.0203 126° Southeast 192 221 4,200 -492 Descending Cleveland Center
Thu 09:30:06 PM 41.6328 -81.9528 125° Southeast 186 214 3,600 -545 Descending Cleveland Center
Thu 09:31:00 PM 41.6083 -81.9022 123° Southeast 184 212 3,100 -835 Descending Cleveland Center
Thu 09:32:01 PM 41.5778 -81.8461 126° Southeast 181 208 2,000 -744 Descending Cleveland Center
Thu 09:33:01 PM 41.5514 -81.7872 121° Southeast 179 206 1,600 -248 Descending Cleveland Center
Thu 09:34:02 PM 41.5289 -81.7425 124° Southeast 140 161 1,500 -98 Descending Cleveland Center
Thu 09:36:00 PM 41.5175 -81.6833 108° East  Level Estimated
Thu 09:43:00 PM 41.5175 -81.6833 108° East  Level Estimated

Login

Don't have an account? Register now (free) for customized features, flight alerts, and more!